SCP
0 0 0 0 0 0 0 0 0 0 0 0 0 0 0 0 0 0 0 0 0 0 0 0 0 0 0 0 1 1 1 1 1 1 1 1 1 1 1 1 1 1 1 1
0 0 0 0 0 0 0 0 0 0 0 0 0 0 0 0 0 0 0 0 0 0 0 0 0 0 0 0 1 1 1 1 0 1 1 1 1 1 1 1 1 1 1 1
0 0 0 0 0 0 0 0 0 0 0 0 0 0 0 0 0 0 0 0 0 0 0 1 1 1 1 0 1 1 0 0 0 0 1 1 1 1 1 1 1 1 1 1
0 0 0 0 0 0 0 0 0 0 0 0 0 0 0 0 0 0 0 0 0 0 1 1 1 1 1 1 1 1 0 0 0 0 0 1 1 1 1 1 1 1 1 1
0 0 0 0 0 0 0 0 0 0 0 0 0 0 0 0 0 0 0 0 0 0 1 1 1 1 1 1 1 1 0 0 0 0 0 1 1 1 1 1 1 1 1 1
0 0 0 0 0 0 0 0 0 0 0 0 0 0 0 0 0 0 0 0 0 0 1 1 1 1 1 1 1 0 0 0 0 0 0 1 1 1 1 1 1 1 1 1
0 0 0 0 0 0 0 0 0 0 0 0 0 0 0 0 0 0 0 0 0 0 1 1 1 1 1 1 1 0 0 0 0 0 1 1 1 1 1 1 1 1 1 1
0 0 0 0 0 0 0 0 0 0 0 0 0 0 0 0 0 0 0 0 0 0 0 0 0 0 0 1 0 0 0 0 0 0 1 1 1 1 1 1 1 1 1 1
0 0 0 0 0 0 0 0 0 0 0 0 0 0 0 0 0 0 0 0 0 0 0 0 0 0 0 0 0 0 0 0 0 0 0 1 1 1 1 1 1 1 1 1
0 0 0 0 0 0 0 0 0 0 0 0 0 0 0 0 0 0 0 0 0 0 0 0 0 0 0 0 0 0 0 0 0 0 0 0 0 0 0 1 1 1 1 0
0 0 0 0 0 0 0 0 0 0 0 0 0 0 0 0 0 0 0 0 0 0 0 0 0 0 0 0 0 0 0 0 0 0 0 0 0 0 0 0 0 0 0 0
0 0 0 0 0 0 0 0 0 0 0 0 0 0 0 0 0 0 0 0 0 0 0 0 0 0 0 0 0 0 0 0 0 0 0 0 0 0 0 0 0 0 0 0
0 0 0 0 0 0 0 0 0 0 0 0 0 0 0 0 0 0 0 0 0 0 0 0 0 0 0 0 0 0 0 0 0 0 0 0 0 0 0 0 0 0 0 0
0 0 0 0 0 0 0 0 0 0 0 0 0 0 0 0 0 0 0 0 0 0 0 0 0 0 0 0 0 0 0 0 0 0 0 0 0 0 0 0 0 0 0 0
0 0 0 0 0 0 0 0 0 0 0 0 0 0 0 0 0 0 0 0 0 0 0 0 0 0 0 0 0 0 0 0 0 0 0 0 0 0 0 0 0 0 0 0
0 0 0 0 0 0 0 0 0 0 0 0 0 0 0 0 0 0 0 0 0 0 0 0 0 0 0 0 0 0 0 0 0 0 0 0 0 0 0 0 0 0 0 0
0 0 0 0 0 0 0 0 0 0 0 0 0 0 0 0 0 0 0 0 0 0 0 0 0 0 0 0 0 0 0 0 0 0 0 0 0 0 0 0 0 0 0 0
0 0 0 0 0 0 0 0 0 0 0 0 0 0 0 0 0 0 0 0 0 0 0 0 0 0 0 0 0 0 0 0 0 0 0 0 0 0 0 0 0 0 0 0
0 0 0 0 0 0 0 0 0 0 0 0 0 0 0 0 0 0 0 0 0 0 0 0 0 0 0 0 0 0 0 0 0 0 0 0 0 0 0 0 0 0 0 0
0 0 0 0 0 0 0 0 0 0 0 0 0 0 0 0 0 0 0 0 0 0 0 0 0 0 0 0 0 0 0 0 0 0 0 0 0 0 0 0 0 0 0 0
0 0 0 0 0 0 0 0 0 0 0 0 0 0 0 0 0 0 0 0 0 0 0 0 0 0 0 0 0 0 0 0 0 0 0 0 0 0 0 0 0 0 0 0
0 0 0 0 0 0 0 0 0 0 0 0 0 0 0 0 0 0 0 0 0 0 0 0 0 0 0 0 0 0 0 0 0 0 0 0 0 0 0 0 0 0 0 0
0 0 0 0 0 0 0 0 0 0 0 0 0 0 0 0 0 0 0 0 0 0 0 0 0 0 0 0 0 0 0 0 0 0 0 0 0 0 0 0 0 0 0 0
0 0 0 0 0 0 0 0 0 0 0 0 0 0 0 0 0 0 0 0 0 0 0 0 0 0 0 0 0 0 0 0 0 0 0 0 0 0 0 0 0 0 0 0
0 0 0 0 0 0 0 0 0 0 0 0 0 0 0 0 0 0 0 0 0 0 0 0 0 0 0 0 0 0 0 0 0 0 0 0 0 0 0 0 0 0 0 0
0 0 0 0 0 0 0 0 0 0 0 0 0 0 0 0 0 0 0 0 0 0 0 0 0 0 0 0 0 0 0 0 0 0 0 0 0 0 0 0 0 0 0 0
0 0 0 0 0 0 0 0 0 0 0 0 0 0 0 0 0 0 0 0 0 0 0 0 0 0 0 0 0 0 0 0 0 0 0 0 0 0 0 0 0 0 0 0
Wind_Speed
8 7 8 9 9 9 11 12 12 10 9 7 7 6 5 3 1 1 1 2 2 1 1 1 1 1 1 1 2 2 3 3 3 3 4 5 5 6 6 6 6 5 5 5
8 7 7 8 8 9 9 9 10 10 8 6 5 5 4 3 2 2 2 2 2 1 1 1 2 2 2 2 1 2 2 3 3 3 4 4 5 6 6 6 6 5 5 5
8 6 8 9 7 7 7 7 8 8 6 5 6 6 5 4 3 3 2 2 2 2 1 2 2 2 2 2 2 2 3 3 3 3 4 4 5 6 6 6 6 6 5 5
6 6 9 1 2 2 5 6 5 6 6 6 6 5 5 3 3 2 2 2 2 2 2 2 2 2 2 3 3 3 3 3 3 3 3 3 4 5 6 5 5 5 5 5
6 8 6 2 0 2 5 5 3 4 5 5 4 4 2 3 2 2 2 2 2 2 2 2 2 2 3 3 3 3 3 3 3 3 3 3 4 4 5 5 5 5 5 5
6 8 6 1 3 3 5 5 2 4 6 6 6 5 2 4 3 3 2 2 2 1 1 1 2 2 3 4 3 3 3 3 3 3 3 4 4 4 3 4 5 5 5 4
8 7 3 3 2 3 5 3 5 5 6 6 6 6 5 4 4 3 3 2 2 1 1 1 1 2 3 3 3 3 3 3 3 3 4 4 4 3 3 4 4 4 4 4
5 6 2 4 1 2 4 4 4 5 5 5 4 4 4 4 3 3 2 2 2 1 1 1 1 2 2 2 2 2 3 3 3 3 4 3 4 3 4 4 5 5 5 5
3 2 3 2 2 3 4 4 4 5 5 4 4 4 5 4 3 3 2 2 2 2 1 1 1 2 2 2 2 3 3 3 3 3 3 3 3 3 4 4 4 4 4 4
3 1 1 2 2 3 3 4 4 4 4 4 4 5 5 4 4 3 3 3 2 2 1 1 1 1 2 1 2 2 3 3 3 3 3 3 3 3 3 3 4 4 3 3
4 3 3 2 2 3 3 3 3 3 4 4 5 5 5 4 4 3 3 3 3 2 2 2 1 2 2 1 1 2 3 3 3 3 3 3 3 2 3 2 1 3 3 3
3 3 3 3 3 4 3 3 3 4 4 4 4 5 5 4 4 4 3 3 3 3 2 2 1 2 2 1 1 2 3 3 3 3 2 3 2 2 1 1 1 2 2 4
4 4 4 4 4 4 3 3 3 3 3 4 4 4 4 4 4 4 4 3 3 3 3 2 2 2 1 1 2 2 3 3 3 3 3 3 3 3 2 2 4 5 4 4
2 3 3 3 3 3 3 3 2 2 3 3 3 4 4 4 4 4 4 4 3 3 3 2 2 1 1 1 2 3 3 3 3 3 3 2 2 3 3 3 3 3 4 6
2 3 3 3 2 2 2 2 1 2 3 3 4 4 4 4 4 4 4 3 2 2 2 2 1 1 1 2 2 3 3 2 2 2 2 2 2 3 3 3 3 2 2 3
3 2 2 2 2 2 1 1 2 2 3 3 4 4 4 4 3 3 3 2 2 2 2 1 1 1 1 1 2 2 2 1 2 3 3 3 3 3 3 3 3 2 3 2
2 2 2 2 2 2 2 2 2 2 3 3 4 4 3 3 3 3 2 2 2 3 2 2 1 1 1 2 2 2 2 1 2 3 3 3 3 3 3 3 3 2 2 1
2 2 2 3 3 2 2 2 2 2 2 3 4 4 3 3 3 3 3 3 3 3 3 3 3 2 2 2 2 2 2 1 2 2 2 2 2 3 3 3 2 2 2 1
1 1 1 2 2 2 2 1 1 2 2 2 3 3 3 3 3 2 2 3 3 3 4 4 4 3 3 3 3 2 2 1 1 2 2 2 2 2 2 2 2 2 2 2
1 1 1 1 2 2 2 1 1 2 2 2 3 3 2 2 2 2 2 2 3 4 4 4 3 3 3 3 4 2 1 1 1 1 1 1 1 1 2 2 2 2 2 2
2 1 1 1 1 2 2 2 2 2 2 3 3 3 2 1 1 1 1 1 2 3 3 2 2 2 2 3 3 2 1 1 1 1 1 1 1 2 2 2 2 2 2 2
1 1 2 1 1 2 2 2 1 2 2 3 3 3 2 2 1 1 1 2 2 3 2 2 2 3 4 4 2 2 2 2 1 1 1 1 1 1 1 2 2 2 2 2
1 1 2 1 1 1 1 2 1 2 2 3 3 3 3 2 2 1 2 2 2 2 2 3 4 4 4 2 2 2 2 2 2 2 2 2 1 1 1 2 2 2 2 2
1 1 1 1 1 1 1 1 1 1 1 2 2 2 2 1 1 1 2 3 2 2 2 3 3 3 3 1 1 2 2 2 2 2 2 2 2 2 2 2 2 2 2 2
1 2 1 1 2 1 0 1 1 1 1 1 1 2 1 2 2 2 2 3 2 2 1 2 0 2 2 2 2 1 1 2 3 3 2 2 2 2 2 2 2 2 2 2
1 1 0 1 1 1 1 1 1 1 1 1 1 1 1 1 2 1 1 1 2 2 2 2 1 1 1 2 2 2 2 1 1 1 2 2 2 2 2 2 3 2 2 2
1 1 1 1 1 1 1 1 1 1 1 1 1 1 1 1 1 1 1 1 1 1 2 2 2 2 2 2 2 2 2 2 2 2 2 2 2 2 2 2 2 2 2 2
Wind_Direction
270 279 271 265 258 253 253 263 267 274 282 301 315 322 323 314 286 250 252 229 212 196 156 152 169 183 197 221 219 211 208 209 218 223 224 220 212 211 211 213 218 218 218 219
255 252 256 255 257 254 255 265 268 274 279 307 323 320 307 284 264 254 263 265 255 229 192 196 201 208 211 219 220 227 224 223 222 225 225 220 213 209 210 212 216 217 217 214
254 251 256 247 248 252 256 266 273 279 299 320 311 311 309 295 275 266 264 264 267 272 240 239 238 228 218 205 199 226 243 243 227 222 221 221 218 207 205 207 209 212 218 216
256 246 249 295 53 298 278 278 287 291 306 313 319 320 317 304 287 281 275 275 283 271 240 233 235 228 224 203 195 210 224 235 242 233 219 214 216 212 208 208 211 213 217 216
255 252 249 189 149 302 281 275 318 313 317 318 316 296 308 3 335 311 295 299 293 277 243 218 224 219 215 205 200 209 221 232 235 234 223 215 218 221 214 206 208 212 213 215
247 260 268 63 48 338 279 253 29 332 318 315 305 285 8 15 348 340 343 328 303 281 239 218 229 218 210 204 201 216 227 231 229 228 227 225 225 226 222 211 210 213 209 214
251 257 264 36 16 273 257 358 6 341 326 312 313 326 346 344 348 353 357 331 313 283 259 229 223 210 207 210 208 217 225 224 224 225 228 223 220 221 222 217 208 209 205 208
252 254 262 48 335 316 349 347 335 332 329 327 330 332 333 340 348 342 340 329 313 294 292 284 244 225 219 225 218 212 215 222 226 228 235 218 213 215 216 210 201 202 203 210
305 329 28 22 347 342 326 320 327 328 331 328 321 322 327 329 330 327 330 334 315 301 306 304 276 259 246 236 221 214 222 225 225 230 230 222 216 217 218 212 216 213 209 208
251 248 320 325 331 338 329 324 331 334 331 326 324 326 323 325 327 325 326 316 305 294 299 311 308 299 279 246 220 217 234 240 236 235 228 213 219 223 229 230 227 224 227 227
252 264 267 281 324 330 330 332 334 335 334 329 326 326 325 323 322 315 309 300 290 283 290 290 296 305 301 283 230 226 233 237 237 238 237 226 223 233 246 253 272 263 261 257
295 316 299 305 311 314 310 316 320 321 326 326 325 322 321 320 314 302 295 295 284 277 270 265 261 285 293 271 230 224 224 230 237 231 225 228 225 212 116 208 139 201 259 276
287 304 305 296 295 306 304 299 298 299 310 318 320 319 316 312 308 304 292 287 275 274 275 265 250 252 253 253 249 242 240 241 243 241 231 229 237 236 223 195 194 207 219 232
278 274 274 284 296 297 299 299 296 303 317 320 317 314 311 307 304 301 295 290 279 272 268 258 256 253 250 258 255 253 253 247 250 247 247 242 243 248 245 243 226 216 204 201
282 273 273 288 284 288 293 304 319 326 333 333 328 321 316 311 308 305 305 304 297 282 280 268 263 260 254 258 251 250 256 264 270 276 266 257 257 261 260 252 248 249 252 200
279 274 273 278 286 291 295 317 324 332 340 336 333 330 324 319 317 316 316 313 309 317 334 312 286 275 252 244 249 239 237 271 269 269 263 258 254 262 271 270 261 257 259 265
277 274 281 289 303 311 328 336 338 349 344 338 339 340 336 334 337 343 352 354 348 352 360 350 337 330 309 292 266 258 256 210 222 252 262 270 271 273 274 273 267 263 271 2
277 285 295 301 308 315 334 342 345 346 348 344 343 345 346 347 351 1 4 357 357 8 10 6 8 348 325 318 301 285 275 262 255 266 266 266 273 275 277 274 272 269 258 189
254 282 305 309 309 318 331 340 340 343 341 336 344 348 346 349 357 360 0 1 3 11 13 13 21 4 345 336 311 277 273 279 272 274 274 257 254 266 271 273 272 265 262 264
233 251 280 303 312 325 324 325 337 341 337 336 338 340 342 348 0 5 5 357 356 2 5 7 1 357 346 341 312 287 288 295 305 304 308 313 315 303 294 295 296 289 282 278
225 247 268 295 312 322 327 333 340 342 342 339 339 337 334 337 336 344 334 347 8 3 353 357 328 343 348 335 293 300 337 347 356 5 358 350 338 332 336 330 312 302 297 293
250 272 286 292 294 315 329 328 337 340 341 341 343 339 328 322 334 17 25 5 15 9 334 337 359 14 348 317 320 345 2 360 357 13 21 2 350 346 341 330 318 310 304 302
259 277 281 288 300 312 323 329 347 346 346 347 352 346 340 345 351 12 37 26 18 9 347 16 18 2 322 304 343 348 360 355 349 358 1 359 4 2 343 326 322 317 314 307
249 253 259 275 279 280 303 326 348 351 351 352 17 10 348 353 27 37 46 64 24 349 18 42 18 334 296 309 349 352 358 355 350 353 352 355 358 354 349 342 341 338 331 324
233 230 233 252 250 248 222 228 227 255 285 1 39 40 13 6 14 32 33 45 35 337 16 83 131 308 308 345 352 346 355 11 1 354 353 352 355 360 354 351 345 333 335 339
220 236 233 289 308 295 277 266 274 292 316 348 27 21 20 25 28 38 46 46 27 343 332 353 18 293 325 333 338 337 344 12 352 340 357 348 353 358 353 348 345 340 345 356
212 210 217 229 233 272 302 309 315 326 339 337 345 2 20 30 24 17 7 355 346 332 334 340 341 342 344 344 355 359 357 358 358 356 356 354 353 351 350 344 343 345 345 354